This is the latest recevied weather packets stored in our database for station/object SQ5LTL-2. If no packets are shown the sender has not sent any weather packets the latest 10 day(s).
| Time | Temp. | Humidity | Pressure | Rain* | Wind** | Luminosity | Snow |
|---|---|---|---|---|---|---|---|
| 1777521631 | -3.33° C | 89% | 1031.1 hPa | 0 mm | - | 25 W/m² | - |
| 1777521329 | -3.89° C | 89% | 1031.1 hPa | 0 mm | - | 26 W/m² | - |
| 1777521028 | -3.89° C | 90% | 1031.2 hPa | 0 mm | - | 23 W/m² | - |
| 1777520727 | -4.44° C | 90% | 1031.2 hPa | 0 mm | - | 18 W/m² | - |
| 1777520426 | -4.44° C | 90% | 1031.1 hPa | 0 mm | - | 14 W/m² | - |
| 1777520124 | -4.44° C | 90% | 1031.1 hPa | 0 mm | - | 11 W/m² | - |
| 1777519822 | -4.44° C | 90% | 1031 hPa | 0 mm | - | 9 W/m² | - |
| 1777519522 | -4.44° C | 90% | 1031.1 hPa | 0 mm | - | 7 W/m² | - |
| 1777519219 | -4.44° C | 91% | 1030.9 hPa | 0 mm | - | 5 W/m² | - |
| 1777518918 | -5° C | 90% | 1031 hPa | 0 mm | - | 3 W/m² | - |
| 1777518616 | -5° C | 90% | 1031 hPa | 0 mm | - | 2 W/m² | - |
| 1777518335 | -5° C | 90% | 1030.9 hPa | 0 mm | - | 1 W/m² | - |
| 1777518033 | -5° C | 91% | 1030.9 hPa | 0 mm | - | 1 W/m² | - |
| 1777517732 | -5° C | 91% | 1030.9 hPa | 0 mm | - | 0 W/m² | - |
| 1777517431 | -5° C | 90% | 1030.9 hPa | 0 mm | - | 0 W/m² | - |
| 1777517129 | -5° C | 90% | 1030.9 hPa | 0 mm | - | 0 W/m² | - |
| 1777516827 | -5° C | 89% | 1031 hPa | 0 mm | - | 0 W/m² | - |
| 1777516527 | -5° C | 89% | 1031 hPa | 0 mm | - | 0 W/m² | - |
| 1777516225 | -4.44° C | 89% | 1030.9 hPa | 0 mm | - | 0 W/m² | - |
| 1777515923 | -4.44° C | 89% | 1030.9 hPa | 0 mm | - | 0 W/m² | - |
| 1777515622 | -4.44° C | 90% | 1030.9 hPa | 0 mm | - | 0 W/m² | - |
| 1777515320 | -4.44° C | 90% | 1031 hPa | 0 mm | - | 0 W/m² | - |
| 1777515019 | -4.44° C | 90% | 1031 hPa | 0 mm | - | 0 W/m² | - |
| 1777514717 | -5° C | 89% | 1031.1 hPa | 0 mm | - | 0 W/m² | - |
| 1777514416 | -5° C | 88% | 1031 hPa | 0 mm | - | 0 W/m² | - |
* Rain latest hour (hover to see other rain measurements)
** Current wind speed in m/s (hover to see current wind gust speed)